Overview Statistics Trail Chart Weather Telemetry Raw packets
 

This is the latest recevied weather packets stored in our database for station/object KC0OOO-WX. If no packets are shown the sender has not sent any weather packets the latest 10 day(s).

<< 13 14 15 16 17 18 19 >>
Time Temp. Humidity Pressure Rain* Wind** Luminosity Snow
1777601499 11.67° C 29% 1015.2 hPa 0 mm - - -
1777600899 12.22° C 27% 1014.9 hPa 0 mm - - -
1777600299 12.78° C 27% 1014.6 hPa 0 mm - - -
1777599699 13.33° C 26% 1014.6 hPa 0 mm - - -
1777599098 13.33° C 23% 1014.6 hPa 0 mm - - -
1777598498 13.89° C 24% 1014.6 hPa 0 mm - - -
1777597898 13.89° C 25% 1014.6 hPa 0 mm - - -
1777597298 13.89° C 22% 1014.6 hPa 0 mm - - -
1777596698 14.44° C 21% 1014.6 hPa 0 mm - - -
1777596098 15° C 18% 1014.6 hPa 0 mm - - -
1777595498 15.56° C 17% 1014.6 hPa 0 mm - - -
1777594898 15.56° C 19% 1014.6 hPa 0 mm - - -
1777594298 15.56° C 19% 1014.6 hPa 0 mm - - -
1777593698 15.56° C 19% 1014.2 hPa 0 mm - - -
1777593098 15.56° C 19% 1014.2 hPa 0 mm - - -
1777592498 15.56° C 19% 1014.2 hPa 0 mm - - -
1777591898 15° C 20% 1014.2 hPa 0 mm - - -
1777591298 15.56° C 19% 1014.2 hPa 0 mm - - -
1777590698 16.11° C 18% 1014.2 hPa 0 mm - - -
1777590098 17.22° C 18% 1014.6 hPa 0 mm - - -
1777589498 17.78° C 18% 1014.6 hPa 0 mm - - -
1777588898 16.67° C 19% 1014.6 hPa 0 mm - - -
1777588298 16.11° C 20% 1014.6 hPa 0 mm - - -
1777587698 16.67° C 18% 1014.6 hPa 0 mm - - -
1777587098 16.67° C 18% 1014.6 hPa 0 mm - - -

* Rain latest hour (hover to see other rain measurements)
** Current wind speed in m/s (hover to see current wind gust speed)